Location: Austin
(30.3000°N, 97.7500°W)
Time: 05:17:38
(UTC-06:00)

SPOT 5 - Pass Details

Date: 03 March 2026
Orbit: 619 x 802 km, 98.0° (Epoch: 5 March)

Event Time Altitude Azimuth Distance (km) Brightness Sun altitude
Exits shadow 19:49:33 31° 97° (E) 1,363 3.7 -17.7°
Maximum altitude 19:50:40 34° 72° (ENE) 1,282 3.6 -17.9°
Drops below altitude 10° 19:55:22 10° 9° (N) 2,375 5.5 -18.9°
Sets 19:57:55 0° 0° (N) 3,313 6.3 -19.5°
